This is the latest recevied weather packets stored in our database for station/object W1SCW. If no packets are shown the sender has not sent any weather packets the latest 10 day(s).
| Time | Temp. | Humidity | Pressure | Rain* | Wind** | Luminosity | Snow |
|---|---|---|---|---|---|---|---|
| 1777942110 | 24.44° C | 73% | 1008.7 hPa | 0 mm | - | 9 W/m² | - |
| 1777941806 | 24.44° C | 72% | 1008.8 hPa | 0 mm | - | 12 W/m² | - |
| 1777941504 | 24.44° C | 72% | 1008.7 hPa | 0 mm | - | 18 W/m² | - |
| 1777941201 | 25° C | 72% | 1008.6 hPa | 0 mm | - | 25 W/m² | - |
| 1777940896 | 25° C | 72% | 1008.6 hPa | 0 mm | - | 32 W/m² | - |
| 1777940594 | 25° C | 72% | 1008.5 hPa | 0 mm | - | 32 W/m² | - |
| 1777940292 | 25° C | 71% | 1008.9 hPa | 0 mm | - | 38 W/m² | - |
| 1777939989 | 25° C | 70% | 1008.9 hPa | 0 mm | - | 51 W/m² | - |
| 1777939686 | 25.56° C | 70% | 1008.7 hPa | 0 mm | - | 50 W/m² | - |
| 1777939384 | 25° C | 70% | 1008.8 hPa | 0 mm | - | 64 W/m² | - |
| 1777939080 | 25° C | 71% | 1008.7 hPa | 0 mm | - | 72 W/m² | - |
| 1777938776 | 25° C | 70% | 1008.5 hPa | 0 mm | - | 76 W/m² | - |
| 1777938474 | 25° C | 70% | 1008.8 hPa | 0 mm | - | 92 W/m² | - |
| 1777938171 | 25.56° C | 69% | 1009 hPa | 0 mm | - | 98 W/m² | - |
| 1777937867 | 25.56° C | 69% | 1009 hPa | 0 mm | - | 106 W/m² | - |
| 1777937563 | 25.56° C | 69% | 1009.1 hPa | 0 mm | - | 88 W/m² | - |
| 1777937260 | 25.56° C | 69% | 1009 hPa | 0 mm | - | 91 W/m² | - |
| 1777936957 | 25.56° C | 68% | 1009.2 hPa | 0 mm | - | 126 W/m² | - |
| 1777936654 | 25.56° C | 68% | 1009.1 hPa | 0 mm | - | 118 W/m² | - |
| 1777936350 | 25.56° C | 68% | 1009.2 hPa | 0 mm | - | 115 W/m² | - |
| 1777936046 | 26.11° C | 67% | 1008.9 hPa | 0 mm | - | 117 W/m² | - |
| 1777935745 | 26.11° C | 67% | 1009.2 hPa | 0 mm | - | 128 W/m² | - |
| 1777935444 | 26.11° C | 67% | 1009.2 hPa | 0 mm | - | 167 W/m² | - |
| 1777935139 | 26.11° C | 67% | 1009.2 hPa | 0 mm | - | 197 W/m² | - |
| 1777934837 | 26.11° C | 67% | 1009.4 hPa | 0 mm | - | 151 W/m² | - |
* Rain latest hour (hover to see other rain measurements)
** Current wind speed in m/s (hover to see current wind gust speed)